Temp
78 76 78 78 79 79 78 77 76 77 78 78 78 78 78 78 77 76 76 75 74 75 74 74 73 73 74 75 75 75 75 74 72 70 70 72 69 70 73 71 73 73 72 71 70 66 67 65 68 69 70 74 73 71 71 72 72 70 70 72 76 76 75
78 78 79 79 78 78 75 77 76 77 77 77 78 78 78 78 77 76 75 75 74 74 75 75 74 74 73 73 73 73 73 74 74 73 72 71 71 70 70 70 70 71 72 71 69 70 66 64 66 68 64 68 71 73 73 73 73 71 70 69 70 74 72
77 77 78 77 75 77 74 75 74 75 76 76 76 77 77 78 76 76 76 75 74 74 75 75 75 75 74 74 74 73 73 72 74 73 72 71 72 72 69 69 66 66 67 67 66 65 66 66 63 67 70 67 61 69 72 72 72 72 71 68 69 69 70
75 75 75 75 75 75 74 74 75 75 76 76 77 76 76 76 75 76 75 75 75 75 74 74 74 74 74 74 74 74 73 72 72 73 72 73 72 71 70 70 69 67 65 65 66 65 63 65 64 64 68 70 70 69 72 73 73 74 71 70 70 71 70
75 74 73 73 74 75 75 74 75 75 75 75 75 76 75 75 74 74 75 74 75 75 74 75 75 75 75 75 74 73 73 73 73 73 73 72 72 72 71 71 68 69 69 67 70 67 64 67 65 65 67 70 70 74 76 72 72 71 69 68 71 74 72
75 75 74 73 74 74 74 73 73 73 74 74 74 73 73 72 73 73 73 73 73 74 74 73 74 74 73 73 73 73 73 73 73 73 72 72 72 71 72 73 73 71 69 68 69 68 66 64 61 60 67 66 64 69 73 73 68 68 68 66 68 72 73
75 74 74 73 73 74 74 73 72 72 72 72 72 71 72 72 72 72 72 72 73 73 73 72 72 73 72 72 72 72 72 73 74 73 73 73 72 71 72 71 71 70 67 68 70 71 70 67 65 66 63 65 68 65 71 71 72 67 65 65 66 70 72
73 73 73 74 73 72 72 72 72 72 71 71 71 71 72 71 71 71 71 71 73 73 73 73 72 72 72 72 72 72 73 74 73 73 73 73 72 71 70 69 69 72 72 71 68 69 73 70 68 67 64 62 62 63 65 69 70 70 69 67 68 68 72
74 73 73 73 73 72 71 71 71 70 70 70 71 71 71 71 71 71 72 72 72 72 73 73 72 72 72 71 72 73 73 75 73 73 73 73 72 72 71 71 70 71 72 69 67 68 68 69 69 67 66 62 59 58 61 61 66 68 72 69 67 70 72
71 71 71 70 71 72 71 71 70 70 70 70 70 71 70 72 72 71 71 70 71 71 71 71 71 71 72 72 72 72 71 73 73 73 73 72 73 73 72 71 70 71 72 71 71 72 71 69 67 64 64 62 61 59 59 61 64 64 67 70 65 69 73
72 71 71 71 71 71 71 71 70 70 70 69 70 70 70 71 70 69 69 70 70 69 68 69 71 72 71 70 71 71 73 73 72 73 73 73 73 74 73 72 72 71 72 70 68 70 72 70 67 65 66 66 66 62 61 59 63 67 66 68 71 71 72
72 72 72 71 71 70 69 69 69 69 69 69 69 69 69 69 68 68 68 68 69 69 69 68 68 68 70 70 70 72 74 74 73 73 73 73 73 74 73 72 72 71 70 68 67 67 68 71 70 68 66 65 65 62 62 60 58 65 68 63 67 73 71
72 72 71 69 69 69 68 68 68 67 66 68 68 68 68 67 67 67 68 68 68 67 67 67 68 68 69 69 70 71 72 73 73 73 74 75 74 73 73 73 73 72 72 69 66 68 67 68 68 65 64 65 66 65 65 64 61 61 64 64 65 67 73
69 70 68 68 68 68 67 67 67 67 68 68 68 68 67 67 68 67 67 67 67 66 66 66 67 67 66 66 67 69 70 71 71 73 73 73 74 74 72 73 74 73 74 69 67 70 69 69 68 67 67 67 67 68 66 63 61 60 63 64 64 64 67
68 68 67 67 66 66 66 66 66 67 66 66 66 66 66 65 66 66 66 66 66 65 64 65 65 65 64 65 66 67 68 69 70 72 71 73 74 73 72 73 73 74 74 72 69 67 67 69 68 66 65 65 66 67 67 64 61 59 59 63 62 64 65
67 66 66 65 64 64 65 64 65 64 64 64 65 64 64 64 64 65 65 64 63 62 63 62 62 62 62 63 66 67 67 69 69 69 70 71 72 73 72 72 73 73 71 68 66 67 69 68 68 67 66 67 67 65 65 65 62 59 59 60 63 63 64
64 64 64 63 62 62 63 63 64 63 64 64 63 63 64 63 62 62 61 62 62 62 61 62 63 63 64 65 65 66 68 68 68 68 68 69 70 69 70 69 70 70 70 67 68 67 67 68 67 66 65 66 66 65 65 63 62 60 60 59 61 61 62
63 62 62 62 60 61 61 62 62 63 63 62 62 61 62 61 60 60 59 62 63 63 63 64 64 65 65 65 65 65 65 66 66 66 65 65 65 66 66 67 67 67 67 65 65 64 65 66 67 66 65 66 65 66 65 64 62 61 60 59 60 62 63
61 61 61 61 61 61 62 62 62 62 62 61 60 60 60 59 58 60 62 63 64 64 64 63 63 63 64 64 63 63 63 64 65 64 64 64 65 65 63 63 63 63 63 62 62 64 64 64 65 65 65 66 67 66 65 64 62 61 60 60 60 60 61
60 60 60 60 61 62 62 61 62 61 61 60 60 59 58 59 60 61 61 62 62 62 61 60 59 60 62 64 63 63 62 63 64 63 63 63 64 63 63 61 60 58 58 58 59 60 61 63 64 65 66 64 63 64 64 63 63 61 60 60 60 61 60
60 60 61 61 60 61 61 61 60 60 60 59 58 57 57 60 62 62 61 61 60 59 59 58 57 57 60 62 62 62 62 62 63 63 63 63 63 63 62 61 59 57 55 53 54 56 57 59 64 62 60 61 62 62 63 63 62 61 61 60 59 59 60
61 61 61 61 61 61 61 61 60 59 58 57 56 58 60 61 61 61 60 59 59 58 56 54 53 52 56 60 61 62 61 61 60 60 61 61 62 61 61 61 59 57 54 52 48 48 48 50 55 54 55 59 60 60 61 63 63 61 60 59 59 59 59
60 61 60 61 61 62 61 60 59 58 57 57 58 59 62 61 61 60 59 58 58 56 55 54 48 44 46 54 62 61 61 60 60 59 59 59 60 60 60 60 60 57 54 52 49 46 45 45 47 48 49 49 51 54 56 58 59 61 61 59 59 59 58
60 60 60 61 62 62 61 60 59 58 58 58 59 61 61 60 59 58 58 57 56 55 54 50 42 42 43 44 58 62 61 60 60 59 59 59 58 59 61 61 61 59 58 57 54 45 45 45 44 44 44 45 47 48 51 53 55 57 58 59 60 60 59
59 59 60 61 61 61 60 59 59 59 59 60 62 62 60 59 58 58 57 58 56 54 54 44 40 42 42 43 48 61 61 60 59 59 59 59 59 60 61 61 60 59 58 59 61 60 54 46 45 45 45 44 43 42 43 47 49 52 54 57 58 57 58
59 59 60 60 60 60 61 61 61 61 61 62 62 61 61 59 58 57 57 57 56 55 55 43 41 41 41 42 45 57 63 62 60 59 59 59 60 60 60 60 60 59 58 57 60 61 60 60 50 48 49 48 47 45 42 42 43 48 53 53 53 50 50
59 59 60 59 59 60 62 62 62 63 63 63 62 61 60 59 58 58 58 58 56 56 53 43 40 41 42 41 46 54 65 64 61 61 60 60 60 61 61 60 60 59 59 59 58 59 61 61 60 60 58 57 55 51 47 45 45 44 47 49 49 47 48
59 58 59 59 59 60 62 63 64 64 63 63 63 62 61 59 58 59 59 58 58 56 52 40 40 40 41 40 44 55 65 63 62 61 60 59 60 61 62 61 61 59 59 58 55 50 61 60 60 58 58 56 55 54 53 52 52 51 49 48 47 47 47
59 59 59 60 60 60 62 62 62 62 63 63 63 63 62 61 60 60 59 59 58 57 54 40 39 41 41 40 46 66 65 63 62 62 61 60 58 57 58 60 61 60 59 58 49 41 50 62 60 59 58 57 56 55 53 49 44 45 48 48 48 47 46
58 58 58 58 58 58 59 62 63 65 64 64 61 62 61 60 60 60 59 60 59 57 56 45 39 40 42 38 55 65 64 64 62 61 60 61 59 56 53 54 58 58 57 56 44 41 43 55 62 61 59 58 57 57 56 57 49 45 44 44 43 43 43
58 58 59 58 57 57 58 59 61 64 64 62 61 62 63 62 61 59 58 57 57 56 55 47 39 40 41 39 50 65 65 63 62 61 60 61 61 59 54 45 49 54 54 52 41 42 42 58 63 62 60 59 59 57 57 59 60 57 48 47 46 45 44
60 59 58 57 57 57 58 59 60 62 62 62 61 62 62 62 61 60 59 56 52 55 55 50 41 40 40 41 52 66 64 63 61 61 61 60 60 60 58 52 44 44 47 45 40 42 41 54 62 61 61 60 58 57 56 58 58 58 57 57 56 56 53
60 59 57 58 58 58 59 60 60 62 62 64 62 62 61 60 59 59 58 57 56 56 55 53 46 39 40 42 42 61 64 62 60 60 60 60 59 58 57 57 51 40 39 40 41 40 42 43 59 60 59 57 57 56 60 58 57 58 57 57 57 57 56
57 57 58 57 57 58 60 61 61 61 61 61 61 60 59 59 58 58 58 57 56 54 53 54 49 39 41 41 40 49 63 61 61 61 60 59 59 57 57 56 54 43 39 40 40 41 42 42 47 58 57 56 56 55 57 61 58 52 59 57 57 57 57
57 57 58 58 59 59 61 62 62 62 62 60 59 59 59 59 58 58 58 58 57 55 51 47 53 43 40 40 40 41 56 58 59 61 59 59 58 57 56 55 54 45 40 40 40 41 41 43 44 58 52 41 42 46 63 63 62 62 60 60 59 58 58
57 59 59 60 60 59 60 61 60 61 60 59 59 58 58 59 58 58 58 58 58 57 55 51 43 48 41 40 40 41 41 50 46 59 58 57 57 57 57 56 53 42 40 41 41 41 42 43 50 50 41 42 44 46 55 64 61 61 61 60 59 58 59
60 61 62 61 60 60 60 61 61 61 61 61 60 59 60 59 59 58 57 57 58 58 57 56 46 42 45 40 41 40 41 40 44 56 58 57 57 56 56 55 51 40 41 42 43 43 43 44 50 42 43 43 48 51 63 62 61 61 59 59 59 59 59
MSLP
1016.47 1016.83 1016.71 1016.78 1016.71 1016.74 1016.98 1017.18 1017.27 1017.34 1017.27 1017.18 1017.22 1017.15 1017.10 1017.15 1017.22 1017.27 1017.30 1017.34 1017.30 1017.22 1017.27 1017.27 1017.30 1017.15 1017.03 1016.91 1016.78 1016.66 1016.54 1016.59 1016.74 1016.86 1016.71 1016.30 1016.62 1016.39 1015.86 1015.86 1015.66 1015.74 1015.78 1015.83 1015.98 1016.66 1016.47 1016.42 1015.74 1015.59 1015.59 1015.07 1015.22 1015.39 1015.47 1015.42 1015.59 1015.83 1015.98 1015.91 1015.74 1015.86 1016.07
1016.42 1016.59 1016.59 1016.66 1016.95 1016.95 1017.30 1017.18 1017.34 1017.30 1017.30 1017.22 1017.10 1017.15 1017.15 1017.07 1017.15 1017.18 1017.15 1017.15 1017.22 1017.15 1017.03 1016.98 1016.95 1016.95 1016.95 1016.91 1016.83 1016.71 1016.59 1016.34 1016.22 1016.22 1016.22 1016.10 1016.07 1016.15 1016.03 1015.83 1015.71 1015.59 1015.54 1015.62 1015.66 1015.62 1016.10 1016.51 1015.71 1015.39 1016.03 1015.42 1015.15 1014.91 1014.91 1014.91 1015.15 1015.39 1015.66 1015.83 1015.78 1015.83 1015.98
1016.66 1016.66 1016.66 1016.95 1017.18 1017.07 1017.42 1017.39 1017.47 1017.42 1017.27 1017.22 1017.15 1017.10 1017.15 1017.03 1017.10 1017.07 1017.03 1017.03 1017.07 1016.95 1016.95 1016.91 1016.83 1016.74 1016.71 1016.66 1016.54 1016.47 1016.39 1016.39 1016.10 1015.98 1016.07 1015.91 1015.71 1015.62 1015.83 1015.86 1016.07 1015.51 1015.59 1015.66 1015.78 1015.91 1015.74 1015.78 1016.10 1015.22 1014.66 1015.03 1015.83 1014.91 1014.62 1014.71 1014.83 1014.98 1015.27 1015.54 1015.78 1015.91 1015.91
1016.74 1016.83 1016.98 1017.10 1017.18 1017.30 1017.51 1017.51 1017.42 1017.39 1017.27 1017.18 1017.15 1017.15 1017.10 1017.10 1017.15 1017.03 1017.03 1016.95 1016.83 1016.83 1016.83 1016.78 1016.66 1016.54 1016.47 1016.39 1016.30 1016.27 1016.22 1016.22 1016.03 1015.83 1015.74 1015.59 1015.51 1015.42 1015.47 1015.42 1015.34 1015.39 1015.66 1015.59 1015.34 1015.51 1015.83 1015.71 1015.71 1015.34 1014.83 1014.47 1014.39 1014.51 1014.15 1014.15 1014.39 1014.54 1014.91 1015.22 1015.47 1015.59 1015.71
1016.74 1016.95 1017.18 1017.42 1017.42 1017.42 1017.39 1017.51 1017.42 1017.34 1017.27 1017.30 1017.30 1017.27 1017.30 1017.30 1017.34 1017.18 1017.03 1016.95 1016.83 1016.71 1016.66 1016.51 1016.42 1016.30 1016.22 1016.18 1016.15 1016.10 1016.03 1015.86 1015.74 1015.66 1015.47 1015.42 1015.22 1015.03 1015.10 1014.98 1014.95 1014.91 1014.74 1014.78 1014.54 1014.98 1015.42 1014.98 1015.22 1014.95 1014.71 1014.10 1014.07 1013.66 1013.30 1013.95 1014.10 1014.47 1014.74 1014.95 1014.95 1014.95 1015.15
1016.78 1016.98 1017.18 1017.47 1017.47 1017.51 1017.54 1017.66 1017.66 1017.62 1017.51 1017.47 1017.42 1017.54 1017.54 1017.62 1017.47 1017.30 1017.10 1016.98 1016.86 1016.71 1016.62 1016.59 1016.51 1016.39 1016.34 1016.22 1016.10 1015.98 1015.83 1015.74 1015.51 1015.42 1015.34 1015.18 1015.03 1015.03 1014.78 1014.42 1014.34 1014.34 1014.51 1014.34 1014.39 1014.66 1014.71 1014.98 1015.42 1015.62 1014.30 1014.59 1014.86 1013.86 1013.51 1013.86 1014.39 1014.39 1014.47 1014.71 1014.71 1014.66 1014.71
1016.91 1017.07 1017.30 1017.51 1017.62 1017.59 1017.59 1017.71 1017.78 1017.78 1017.74 1017.71 1017.74 1017.74 1017.62 1017.54 1017.39 1017.27 1017.15 1016.98 1016.83 1016.71 1016.62 1016.62 1016.54 1016.42 1016.34 1016.22 1016.07 1015.95 1015.74 1015.47 1015.22 1015.15 1015.03 1014.86 1014.74 1014.62 1014.47 1014.39 1014.22 1014.30 1014.51 1014.22 1013.71 1013.62 1013.86 1014.39 1014.54 1014.59 1014.83 1014.34 1013.86 1014.15 1013.42 1013.74 1013.71 1014.39 1014.39 1014.34 1014.30 1014.30 1014.34
1017.07 1017.22 1017.39 1017.47 1017.59 1017.71 1017.71 1017.83 1017.83 1017.83 1017.91 1017.83 1017.83 1017.74 1017.59 1017.51 1017.42 1017.30 1017.18 1017.07 1016.78 1016.66 1016.54 1016.47 1016.39 1016.27 1016.10 1015.98 1015.91 1015.71 1015.42 1015.18 1015.03 1014.95 1014.78 1014.62 1014.59 1014.42 1014.39 1014.42 1014.18 1013.95 1013.83 1013.74 1013.98 1013.74 1013.34 1013.54 1013.91 1014.15 1014.34 1014.62 1014.39 1014.03 1013.86 1013.47 1013.54 1013.54 1013.66 1013.86 1013.83 1014.07 1013.95
1017.07 1017.22 1017.39 1017.51 1017.59 1017.71 1017.83 1017.91 1017.86 1017.91 1017.95 1017.95 1017.78 1017.74 1017.59 1017.51 1017.42 1017.27 1017.10 1016.95 1016.78 1016.62 1016.51 1016.39 1016.34 1016.22 1016.03 1015.98 1015.74 1015.47 1015.34 1014.95 1014.91 1014.74 1014.51 1014.30 1014.18 1014.07 1014.07 1013.86 1013.86 1013.71 1013.47 1013.66 1013.74 1013.54 1013.42 1013.34 1013.51 1013.74 1014.07 1014.51 1014.71 1014.59 1014.22 1014.30 1013.47 1013.15 1012.74 1013.30 1013.47 1013.39 1013.42
1017.34 1017.47 1017.54 1017.71 1017.74 1017.71 1017.78 1017.86 1017.91 1017.95 1017.95 1017.86 1017.78 1017.66 1017.62 1017.42 1017.30 1017.27 1017.18 1017.07 1016.91 1016.71 1016.54 1016.39 1016.27 1016.15 1015.95 1015.78 1015.62 1015.42 1015.30 1014.91 1014.78 1014.59 1014.34 1014.18 1013.91 1013.74 1013.66 1013.66 1013.62 1013.47 1013.30 1013.22 1013.15 1013.03 1013.07 1013.15 1013.34 1013.66 1013.74 1013.98 1014.22 1014.18 1014.10 1013.66 1013.15 1013.30 1012.91 1012.78 1013.39 1012.98 1012.83
1017.27 1017.42 1017.54 1017.62 1017.71 1017.74 1017.83 1017.86 1017.95 1017.91 1017.91 1017.91 1017.83 1017.74 1017.62 1017.54 1017.54 1017.54 1017.39 1017.22 1017.03 1016.95 1016.91 1016.66 1016.39 1016.10 1015.98 1015.86 1015.59 1015.39 1014.98 1014.78 1014.66 1014.34 1014.07 1013.95 1013.71 1013.42 1013.34 1013.42 1013.27 1013.18 1012.95 1012.98 1012.95 1012.86 1012.71 1012.78 1012.95 1013.27 1013.22 1013.22 1013.27 1013.71 1013.66 1013.78 1012.91 1012.54 1012.74 1012.47 1012.30 1012.42 1012.51
1017.22 1017.39 1017.54 1017.71 1017.78 1017.95 1018.03 1018.03 1018.03 1017.98 1017.95 1017.95 1017.91 1017.91 1017.83 1017.71 1017.74 1017.66 1017.54 1017.42 1017.18 1016.98 1016.86 1016.78 1016.66 1016.51 1016.15 1015.91 1015.54 1015.15 1014.78 1014.62 1014.47 1014.22 1013.91 1013.78 1013.51 1013.30 1013.30 1013.30 1013.07 1012.91 1012.78 1012.86 1012.86 1012.66 1012.66 1012.30 1012.42 1012.66 1012.95 1013.15 1013.15 1013.39 1013.42 1013.54 1013.51 1012.30 1012.27 1012.83 1012.22 1011.74 1012.15
1017.39 1017.51 1017.66 1017.86 1017.98 1018.07 1018.10 1018.10 1018.18 1018.22 1018.30 1018.15 1018.07 1018.03 1017.95 1017.95 1017.91 1017.74 1017.54 1017.39 1017.22 1017.18 1017.10 1016.91 1016.71 1016.51 1016.22 1015.98 1015.62 1015.22 1014.83 1014.62 1014.39 1014.15 1013.78 1013.42 1013.30 1013.27 1013.15 1012.95 1012.83 1012.71 1012.42 1012.47 1012.54 1012.42 1012.30 1012.22 1012.30 1012.66 1012.83 1012.62 1012.54 1012.74 1012.78 1012.91 1013.03 1012.78 1012.34 1012.42 1012.18 1012.15 1011.78
1017.62 1017.66 1017.83 1018.03 1018.07 1018.15 1018.22 1018.27 1018.39 1018.34 1018.22 1018.18 1018.15 1018.10 1018.07 1018.07 1017.95 1017.78 1017.62 1017.54 1017.42 1017.34 1017.27 1017.07 1016.83 1016.66 1016.59 1016.39 1015.98 1015.62 1015.22 1014.86 1014.54 1014.10 1013.78 1013.47 1013.22 1013.10 1013.15 1012.91 1012.62 1012.39 1012.07 1012.30 1012.27 1011.91 1011.91 1011.91 1011.98 1012.18 1012.22 1012.22 1012.22 1012.18 1012.47 1012.74 1012.91 1012.71 1012.30 1012.15 1012.10 1012.10 1011.95
1017.71 1017.78 1017.95 1018.15 1018.39 1018.42 1018.54 1018.54 1018.59 1018.47 1018.47 1018.39 1018.39 1018.34 1018.27 1018.27 1018.15 1017.98 1017.86 1017.74 1017.62 1017.54 1017.47 1017.34 1017.18 1016.98 1016.83 1016.54 1016.22 1015.78 1015.47 1015.07 1014.66 1014.30 1013.98 1013.71 1013.27 1013.15 1013.07 1012.91 1012.51 1012.18 1011.95 1012.03 1012.15 1012.18 1012.03 1011.59 1011.83 1012.03 1012.15 1012.22 1012.07 1012.03 1012.15 1012.54 1012.62 1012.74 1012.54 1012.18 1012.27 1012.07 1011.98
1017.86 1018.03 1018.18 1018.42 1018.71 1018.74 1018.74 1018.78 1018.86 1018.78 1018.71 1018.66 1018.59 1018.59 1018.59 1018.51 1018.39 1018.22 1018.10 1018.07 1018.03 1018.03 1017.86 1017.71 1017.47 1017.27 1017.07 1016.78 1016.34 1015.91 1015.59 1015.18 1014.91 1014.59 1014.22 1013.86 1013.59 1013.30 1013.18 1013.03 1012.59 1012.22 1012.10 1012.34 1012.34 1011.98 1011.74 1011.71 1011.71 1011.86 1011.91 1011.86 1011.95 1012.07 1012.22 1012.34 1012.54 1012.66 1012.59 1012.30 1012.07 1012.18 1012.15
1018.22 1018.30 1018.47 1018.74 1018.95 1019.03 1019.03 1019.07 1018.98 1018.91 1018.83 1018.74 1018.78 1018.83 1018.83 1018.83 1018.74 1018.62 1018.54 1018.39 1018.27 1018.18 1018.03 1017.74 1017.47 1017.30 1016.98 1016.71 1016.42 1016.07 1015.62 1015.34 1015.15 1014.91 1014.59 1014.34 1014.10 1013.86 1013.62 1013.42 1013.07 1012.74 1012.47 1012.47 1012.22 1012.03 1011.71 1011.71 1011.66 1011.78 1011.91 1011.83 1011.91 1011.95 1012.03 1012.22 1012.39 1012.59 1012.51 1012.54 1012.10 1012.15 1012.07
1018.51 1018.59 1018.66 1018.83 1019.15 1019.22 1019.22 1019.18 1019.18 1019.10 1019.03 1019.03 1019.18 1019.22 1019.18 1019.18 1019.18 1019.03 1018.91 1018.54 1018.27 1018.10 1017.95 1017.74 1017.54 1017.34 1017.07 1016.86 1016.59 1016.34 1016.10 1015.86 1015.59 1015.30 1015.18 1015.03 1014.74 1014.51 1014.34 1014.03 1013.66 1013.39 1013.03 1012.86 1012.59 1012.47 1012.10 1011.83 1011.71 1011.71 1011.66 1011.71 1011.74 1011.71 1011.86 1012.03 1012.18 1012.30 1012.51 1012.42 1012.22 1011.98 1011.83
1018.78 1018.83 1018.86 1019.03 1019.10 1019.15 1019.10 1019.10 1019.18 1019.27 1019.30 1019.42 1019.51 1019.59 1019.59 1019.54 1019.51 1019.18 1018.91 1018.71 1018.51 1018.30 1018.15 1018.10 1017.95 1017.74 1017.39 1017.10 1016.86 1016.71 1016.51 1016.18 1015.91 1015.74 1015.59 1015.42 1015.15 1014.98 1014.83 1014.66 1014.47 1014.15 1013.86 1013.59 1013.27 1012.78 1012.42 1012.27 1012.07 1012.07 1011.98 1011.66 1011.54 1011.59 1011.74 1011.83 1012.03 1012.15 1012.27 1012.27 1012.27 1012.27 1012.15
1018.91 1018.95 1019.03 1019.15 1019.15 1019.10 1019.15 1019.22 1019.27 1019.47 1019.54 1019.71 1019.83 1019.91 1019.98 1019.78 1019.51 1019.27 1019.18 1019.07 1018.98 1018.86 1018.71 1018.62 1018.51 1018.27 1017.71 1017.27 1017.10 1016.95 1016.74 1016.47 1016.15 1015.98 1015.91 1015.71 1015.51 1015.34 1015.27 1015.18 1015.18 1015.22 1014.95 1014.62 1014.03 1013.59 1013.15 1012.62 1012.30 1012.10 1012.07 1012.07 1011.91 1011.71 1011.71 1011.78 1011.83 1011.95 1012.07 1012.15 1012.18 1012.15 1012.22
1019.03 1018.95 1018.98 1019.07 1019.15 1019.15 1019.15 1019.30 1019.54 1019.74 1019.91 1020.10 1020.27 1020.30 1020.18 1019.78 1019.47 1019.47 1019.51 1019.47 1019.54 1019.51 1019.42 1019.30 1019.18 1018.86 1018.15 1017.59 1017.42 1017.22 1017.03 1016.86 1016.51 1016.27 1016.07 1015.91 1015.83 1015.71 1015.62 1015.51 1015.74 1015.91 1015.91 1015.74 1015.27 1014.62 1014.07 1013.30 1012.62 1012.59 1012.83 1012.51 1012.15 1011.91 1011.78 1011.74 1011.74 1011.83 1011.86 1011.98 1012.10 1012.22 1012.18
1019.07 1019.07 1019.07 1019.07 1019.10 1019.15 1019.27 1019.51 1019.66 1019.95 1020.22 1020.47 1020.59 1020.47 1020.15 1019.83 1019.78 1019.83 1019.91 1019.95 1019.91 1019.86 1019.83 1019.95 1019.91 1019.66 1018.86 1017.98 1017.66 1017.42 1017.30 1017.22 1017.07 1016.86 1016.62 1016.42 1016.22 1016.07 1015.91 1015.83 1016.03 1016.22 1016.42 1016.39 1016.18 1015.86 1015.54 1014.86 1014.10 1013.91 1013.74 1013.18 1012.78 1012.42 1012.18 1011.86 1011.74 1011.91 1011.91 1012.07 1012.18 1012.22 1012.34
1019.18 1019.15 1019.18 1019.10 1019.10 1019.22 1019.42 1019.66 1019.95 1020.22 1020.51 1020.66 1020.66 1020.42 1020.18 1020.15 1020.15 1020.18 1020.22 1020.18 1020.18 1020.18 1020.30 1020.34 1020.51 1020.07 1019.54 1018.83 1017.78 1017.62 1017.59 1017.59 1017.42 1017.27 1017.10 1016.83 1016.62 1016.47 1016.34 1016.22 1016.18 1016.30 1016.30 1016.34 1016.39 1016.27 1016.07 1015.74 1015.51 1015.30 1015.10 1014.59 1014.07 1013.39 1012.98 1012.54 1012.18 1011.98 1011.91 1012.03 1012.03 1012.18 1012.34
1019.30 1019.39 1019.34 1019.27 1019.27 1019.39 1019.62 1019.86 1020.10 1020.39 1020.62 1020.62 1020.47 1020.39 1020.42 1020.51 1020.59 1020.59 1020.54 1020.54 1020.59 1020.59 1020.74 1020.98 1020.86 1020.27 1019.66 1019.07 1018.22 1017.98 1017.95 1017.95 1017.78 1017.62 1017.47 1017.27 1017.07 1016.78 1016.51 1016.42 1016.39 1016.42 1016.18 1015.98 1016.18 1016.42 1016.34 1016.18 1016.07 1015.86 1015.66 1015.51 1015.22 1014.78 1014.22 1013.59 1013.15 1012.71 1012.30 1012.07 1011.95 1012.03 1012.10
1019.54 1019.51 1019.39 1019.47 1019.62 1019.83 1019.95 1020.07 1020.22 1020.39 1020.42 1020.39 1020.30 1020.39 1020.62 1020.78 1020.86 1020.91 1020.86 1020.78 1020.86 1020.91 1020.95 1021.42 1020.98 1020.51 1019.86 1019.34 1018.78 1018.27 1018.18 1018.10 1018.10 1017.98 1017.86 1017.54 1017.30 1017.07 1016.83 1016.66 1016.62 1016.59 1016.59 1016.30 1015.95 1015.91 1016.15 1016.27 1016.15 1016.03 1015.83 1015.71 1015.62 1015.54 1015.42 1015.18 1014.62 1013.86 1013.34 1012.62 1012.39 1012.54 1012.39
1019.66 1019.66 1019.66 1019.74 1019.95 1020.07 1019.91 1019.98 1020.10 1020.27 1020.39 1020.42 1020.51 1020.62 1020.83 1020.98 1021.18 1021.22 1021.15 1021.07 1021.10 1021.15 1021.15 1021.62 1021.22 1020.71 1020.22 1019.71 1019.07 1018.39 1018.18 1018.22 1018.22 1018.34 1018.22 1018.03 1017.62 1017.47 1017.22 1017.03 1016.95 1016.91 1016.95 1016.71 1016.18 1016.07 1015.91 1015.83 1015.95 1015.95 1015.78 1015.62 1015.62 1015.71 1015.54 1015.34 1015.27 1014.98 1014.30 1013.74 1013.74 1014.10 1014.34
1019.74 1019.78 1019.86 1020.07 1020.15 1020.10 1019.74 1019.95 1020.07 1020.15 1020.30 1020.47 1020.62 1020.91 1021.07 1021.22 1021.30 1021.34 1021.27 1021.18 1021.22 1021.27 1021.54 1021.98 1021.54 1020.98 1020.39 1019.98 1019.27 1018.66 1018.30 1018.22 1018.47 1018.54 1018.51 1018.22 1017.95 1017.71 1017.51 1017.34 1017.18 1017.27 1017.30 1017.15 1016.91 1016.47 1016.07 1015.95 1015.83 1015.74 1015.78 1015.74 1015.83 1015.95 1015.86 1015.78 1015.54 1015.39 1015.10 1015.10 1015.10 1015.18 1015.18
1019.91 1020.03 1020.15 1020.22 1020.27 1020.27 1019.98 1019.98 1019.95 1020.22 1020.51 1020.59 1020.71 1020.83 1021.10 1021.34 1021.47 1021.39 1021.34 1021.34 1021.34 1021.42 1021.95 1022.27 1021.74 1021.15 1020.59 1020.10 1019.59 1018.66 1018.59 1018.59 1018.71 1018.78 1018.83 1018.83 1018.71 1018.30 1018.03 1017.78 1017.74 1017.83 1017.86 1017.71 1017.71 1017.54 1016.42 1016.34 1016.22 1016.18 1016.10 1016.18 1016.34 1016.54 1016.47 1016.27 1016.15 1016.03 1015.95 1015.91 1015.91 1015.86 1015.78
1019.95 1020.15 1020.22 1020.18 1020.30 1020.47 1020.22 1020.27 1020.39 1020.62 1020.66 1020.71 1020.95 1021.10 1021.27 1021.42 1021.51 1021.47 1021.47 1021.42 1021.42 1021.51 1021.91 1022.39 1022.03 1021.47 1020.86 1020.03 1019.10 1018.66 1018.86 1018.91 1019.03 1019.03 1019.07 1019.22 1019.39 1019.42 1019.15 1018.66 1018.34 1018.34 1018.42 1018.27 1018.42 1017.91 1017.18 1016.62 1016.59 1016.47 1016.47 1016.54 1016.62 1016.74 1016.86 1017.34 1017.30 1016.98 1016.78 1016.66 1016.54 1016.42 1016.34
1020.22 1020.39 1020.39 1020.47 1020.62 1020.78 1020.78 1020.54 1020.54 1020.59 1020.51 1020.78 1021.34 1021.39 1021.59 1021.74 1021.78 1021.74 1021.74 1021.59 1021.71 1021.83 1022.07 1022.54 1022.34 1021.74 1021.10 1020.59 1019.30 1019.18 1019.15 1019.15 1019.27 1019.39 1019.42 1019.47 1019.74 1020.15 1020.30 1019.98 1019.34 1019.15 1019.03 1019.07 1019.10 1018.22 1017.54 1016.74 1016.59 1016.59 1016.66 1016.74 1016.83 1016.74 1016.91 1017.07 1017.15 1017.03 1016.91 1016.78 1016.59 1016.39 1016.18
1020.42 1020.47 1020.59 1020.74 1020.95 1021.07 1021.10 1021.18 1021.18 1020.91 1020.98 1021.27 1021.51 1021.54 1021.54 1021.74 1022.03 1022.27 1022.30 1022.34 1022.30 1022.22 1022.42 1022.83 1022.71 1022.10 1021.51 1020.83 1019.95 1019.34 1019.34 1019.39 1019.51 1019.62 1019.78 1019.86 1019.91 1020.22 1020.86 1021.18 1020.71 1020.15 1019.95 1019.95 1019.66 1018.71 1018.03 1017.18 1016.86 1016.91 1016.95 1016.95 1016.86 1017.03 1017.22 1017.10 1016.83 1016.78 1016.78 1016.71 1016.59 1016.54 1016.39
1020.22 1020.51 1020.91 1021.15 1021.22 1021.30 1021.42 1021.51 1021.51 1021.47 1021.51 1021.59 1021.71 1021.74 1021.95 1021.86 1022.15 1022.34 1022.62 1022.78 1022.86 1022.54 1022.66 1022.98 1023.07 1022.59 1021.91 1021.27 1020.47 1019.66 1019.71 1019.74 1019.86 1019.86 1019.95 1020.22 1020.30 1020.42 1020.71 1021.18 1021.59 1021.54 1021.15 1020.78 1020.10 1019.42 1018.78 1017.95 1017.47 1017.34 1017.27 1017.15 1017.18 1017.51 1017.95 1017.78 1017.34 1017.15 1016.98 1016.66 1016.59 1016.39 1016.30
1020.59 1020.91 1021.27 1021.34 1021.47 1021.59 1021.62 1021.62 1021.66 1021.54 1021.54 1021.54 1021.74 1021.95 1022.10 1022.34 1022.51 1022.66 1022.86 1022.98 1023.07 1022.91 1022.95 1023.22 1023.54 1023.15 1022.54 1021.86 1021.22 1020.30 1020.07 1020.07 1020.30 1020.42 1020.42 1020.39 1020.59 1020.86 1021.07 1021.22 1021.71 1021.98 1021.59 1021.10 1020.59 1020.15 1019.66 1019.03 1018.22 1018.18 1018.15 1018.15 1017.91 1017.91 1018.07 1018.18 1018.10 1017.66 1017.59 1017.47 1017.30 1017.10 1017.07
1021.39 1021.51 1021.51 1021.66 1021.83 1021.83 1021.71 1021.74 1021.74 1021.78 1021.83 1021.95 1022.15 1022.34 1022.51 1022.62 1022.78 1022.95 1023.10 1023.27 1023.47 1023.66 1023.66 1023.42 1023.74 1023.66 1023.15 1022.66 1022.07 1021.18 1020.62 1020.66 1020.59 1020.66 1020.71 1020.86 1020.98 1021.27 1021.51 1021.74 1022.07 1022.51 1022.07 1021.59 1021.10 1020.74 1020.34 1019.98 1019.47 1019.18 1019.10 1019.03 1018.98 1018.59 1017.98 1017.91 1018.15 1017.95 1017.74 1017.78 1017.78 1017.66 1017.54
1021.62 1021.74 1021.83 1021.83 1021.91 1021.86 1021.86 1021.83 1021.91 1021.91 1022.03 1022.30 1022.47 1022.51 1022.62 1022.71 1022.91 1023.18 1023.30 1023.42 1023.62 1023.86 1024.31 1024.27 1023.78 1023.98 1023.78 1023.34 1022.95 1022.51 1021.66 1021.62 1021.39 1021.07 1021.22 1021.39 1021.59 1021.83 1022.15 1022.34 1022.51 1022.83 1022.47 1021.98 1021.59 1021.22 1020.91 1020.51 1020.18 1019.71 1020.03 1019.91 1019.34 1018.62 1017.83 1017.83 1017.98 1017.91 1017.91 1017.83 1017.78 1017.74 1017.78
1021.86 1021.83 1021.83 1021.83 1021.91 1022.07 1022.10 1022.18 1022.27 1022.30 1022.42 1022.51 1022.59 1022.71 1022.83 1022.95 1023.03 1023.18 1023.27 1023.42 1023.66 1023.91 1024.15 1024.46 1024.58 1024.27 1024.31 1023.98 1023.71 1023.34 1023.07 1022.59 1022.10 1021.66 1021.78 1021.98 1022.10 1022.30 1022.42 1022.59 1022.86 1022.98 1022.59 1022.22 1021.95 1021.66 1021.34 1020.91 1020.39 1020.47 1020.18 1019.74 1019.39 1018.98 1018.39 1018.18 1018.34 1018.15 1018.07 1018.07 1018.03 1017.98 1018.03
1021.74 1021.74 1021.78 1021.91 1022.07 1022.18 1022.27 1022.30 1022.30 1022.30 1022.34 1022.27 1022.42 1022.59 1022.71 1022.86 1022.98 1023.10 1023.30 1023.51 1023.66 1023.86 1024.10 1024.34 1024.86 1024.86 1024.67 1024.51 1024.22 1023.98 1023.66 1023.39 1022.98 1022.59 1022.47 1022.54 1022.71 1022.86 1022.95 1023.10 1023.22 1023.07 1022.62 1022.34 1022.07 1021.78 1021.54 1021.34 1021.07 1020.78 1020.30 1019.91 1019.42 1019.03 1018.71 1018.71 1018.54 1018.47 1018.42 1018.39 1018.42 1018.47 1018.66
Wind_Speed
3 5 4 3 2 1 1 2 2 3 1 1 1 2 3 3 3 3 3 4 5 5 5 5 6 6 6 7 8 9 8 8 8 9 10 9 8 9 9 10 11 11 12 12 12 10 10 9 7 5 8 10 10 10 11 11 11 10 9 10 10 10 9
3 4 4 3 3 2 3 3 2 1 1 2 3 3 3 4 3 4 5 5 4 5 5 6 6 7 8 8 9 9 9 9 8 9 9 10 9 9 9 9 10 10 10 10 11 12 10 9 11 9 7 9 8 9 10 11 11 10 9 9 8 7 7
4 4 3 4 3 2 4 3 1 1 1 2 1 3 3 3 4 4 5 5 5 5 5 7 8 8 8 9 9 9 9 10 10 9 10 10 10 9 8 9 9 9 9 9 8 10 10 12 12 11 8 7 9 9 9 10 11 12 10 9 8 9 9
7 4 4 3 3 3 2 1 1 2 3 3 3 2 2 3 4 5 5 5 6 6 6 7 8 8 8 8 8 9 10 11 10 11 11 11 10 10 10 10 11 8 8 11 10 7 9 10 8 11 11 10 10 9 9 10 10 12 10 10 11 11 13
5 3 4 4 2 1 1 2 2 3 3 2 2 3 3 4 5 5 6 6 6 6 7 7 7 8 8 8 8 8 9 10 10 10 10 10 11 10 10 9 8 9 10 11 11 7 8 8 8 10 10 10 9 11 7 7 9 10 10 8 11 12 12
4 4 3 3 2 1 2 3 3 3 3 3 3 4 4 5 5 5 5 5 5 5 6 7 8 8 8 8 9 9 9 10 9 10 10 11 11 11 9 9 9 10 9 7 8 9 7 8 8 9 11 6 10 8 7 6 6 7 7 9 11 11 11
5 3 3 3 2 2 3 3 3 3 3 3 3 4 4 5 5 5 5 6 6 6 7 7 8 8 8 8 8 9 10 9 9 11 11 11 11 11 10 10 10 8 8 11 9 8 10 9 9 9 8 9 8 10 9 7 7 7 8 9 9 11 12
4 3 3 2 2 3 3 4 3 3 3 3 4 4 5 5 5 5 6 6 6 7 7 7 7 8 8 8 8 9 9 9 11 11 10 11 10 11 11 9 10 9 9 8 7 10 9 9 8 8 9 8 9 9 10 9 9 12 9 10 10 12 13
4 3 3 2 2 2 3 3 3 3 3 4 3 4 4 5 6 6 6 6 7 7 7 7 7 7 8 8 8 8 9 8 9 11 11 11 11 12 11 9 9 9 7 5 7 6 8 7 6 6 8 10 10 9 6 10 10 10 11 9 9 14 13
4 3 3 3 2 2 3 3 3 3 4 4 4 4 5 6 6 6 7 7 7 7 8 8 8 8 8 8 8 9 10 10 9 10 10 10 10 10 9 9 8 8 8 7 8 8 8 7 6 7 8 9 10 10 8 8 9 8 8 11 9 12 15
4 4 3 3 3 3 3 3 3 3 4 5 5 5 6 6 6 6 6 7 6 7 7 7 8 8 8 8 8 9 9 9 9 9 9 9 10 9 8 7 8 8 7 7 7 8 8 8 8 7 7 7 8 8 8 9 9 7 6 7 11 9 12
4 4 3 3 3 3 3 3 4 4 4 5 5 6 6 6 6 6 6 7 7 7 7 7 7 7 8 8 8 9 8 8 9 9 9 8 8 8 8 8 7 7 6 4 7 7 7 8 7 6 6 7 7 9 8 8 10 4 5 8 10 9 10
5 5 4 4 3 3 4 4 4 5 5 5 5 6 6 6 7 7 7 7 7 7 8 8 7 7 8 8 9 9 9 10 10 9 9 7 7 7 9 9 8 7 7 5 6 8 6 6 5 5 7 8 7 7 8 9 10 9 4 6 6 7 9
5 5 5 4 3 4 4 4 4 4 4 4 5 6 6 7 7 7 7 7 8 8 8 8 7 7 7 8 8 9 9 10 10 9 9 10 8 7 8 9 9 8 8 8 7 6 5 5 6 6 6 7 8 7 8 8 9 9 5 4 6 6 6
6 5 5 5 4 4 4 4 4 4 4 5 6 6 7 7 7 7 7 8 8 8 8 8 8 7 7 8 8 7 7 10 10 9 9 9 9 7 7 8 9 8 8 7 7 6 8 4 4 4 6 8 7 7 6 7 8 8 8 3 5 7 9
5 5 5 5 5 5 4 4 4 5 5 5 6 6 7 7 7 8 8 8 8 8 8 8 7 7 7 7 8 8 8 9 9 10 10 10 10 10 9 9 9 9 6 6 8 8 4 4 4 4 5 5 7 5 5 7 7 7 8 6 5 5 5
5 5 6 6 6 6 5 5 5 6 6 6 7 7 6 7 7 8 7 8 8 8 8 8 8 7 7 8 8 9 9 8 8 10 10 11 11 11 12 11 10 11 10 10 8 6 5 4 4 3 4 5 5 6 5 5 6 7 6 7 6 7 5
6 7 7 7 7 6 6 5 6 6 7 7 7 6 6 7 7 7 7 8 8 8 9 9 8 8 8 8 8 8 9 8 8 9 9 9 10 10 10 11 12 12 12 11 10 9 9 7 6 6 4 4 4 4 3 4 6 6 7 8 4 3 4
8 8 8 8 7 7 6 7 6 6 7 7 7 7 7 7 7 8 8 8 8 9 9 10 9 9 9 8 8 8 8 8 8 8 8 9 9 10 9 11 12 12 12 11 10 11 10 10 7 6 8 5 4 4 4 4 4 5 6 7 4 2 2
8 8 8 7 7 7 7 7 7 7 7 7 7 7 7 7 7 8 8 8 9 9 10 10 10 9 9 8 8 8 8 8 8 8 8 9 9 10 10 11 12 12 12 11 10 10 9 9 7 8 8 8 7 4 4 4 4 6 7 6 5 5 4
8 8 8 8 8 7 7 8 8 7 7 7 7 7 7 7 7 8 8 9 9 9 9 10 11 11 9 8 8 8 9 9 9 9 10 10 10 10 11 11 12 13 12 11 11 10 11 8 8 8 9 8 8 7 4 3 4 4 5 6 6 4 3
8 8 8 8 8 8 8 8 8 8 7 7 6 6 6 7 8 8 9 9 9 9 9 10 9 10 9 8 8 8 9 10 10 10 10 10 11 11 11 10 11 10 14 18 18 16 16 14 9 8 9 9 8 7 7 6 3 3 3 3 2 3 3
8 8 8 9 9 9 9 9 8 8 8 7 6 6 7 8 8 9 9 9 9 9 10 9 12 15 12 9 7 8 9 10 11 11 11 11 11 11 10 9 10 12 12 17 18 17 16 18 20 15 11 10 9 7 6 6 6 4 4 4 4 5 5
8 8 8 9 9 10 10 9 9 8 7 6 6 7 8 8 9 9 10 9 10 9 9 8 16 14 14 16 9 10 10 11 11 12 12 12 11 12 11 11 10 12 12 8 10 14 15 15 14 16 19 19 18 13 9 8 6 6 6 5 3 5 6
8 9 9 10 10 10 9 9 9 8 7 8 7 8 8 9 9 9 8 9 10 9 9 13 16 15 14 15 11 10 11 11 11 11 12 12 12 11 12 11 11 10 11 13 10 10 11 12 13 14 16 19 18 18 15 12 9 8 8 7 7 6 4
9 9 10 9 7 8 9 9 9 9 9 8 8 9 9 9 9 9 8 9 10 10 9 15 16 16 14 13 11 10 11 12 11 12 12 12 12 12 12 11 11 11 11 15 11 11 11 10 11 14 16 18 21 21 20 19 17 12 8 10 9 9 8
9 9 9 7 7 8 9 10 9 8 8 8 9 9 10 10 10 9 9 9 9 9 10 14 15 15 14 12 9 10 12 13 12 13 13 13 13 14 13 13 12 12 12 13 11 11 12 12 13 14 16 17 18 20 19 20 19 19 15 10 10 9 8
9 9 7 7 7 9 10 9 9 8 7 8 8 8 9 9 9 9 9 9 8 7 9 16 16 16 15 13 8 12 11 12 11 12 12 13 13 14 14 13 13 12 13 13 11 13 10 13 13 13 15 16 17 18 19 19 18 16 15 12 10 10 10
9 8 7 7 8 9 9 9 9 8 7 8 8 8 9 9 9 9 9 9 8 8 10 17 17 16 16 17 12 10 11 11 11 12 13 14 14 13 12 12 11 12 13 12 16 18 11 11 13 14 15 15 14 15 16 11 12 14 13 12 10 9 8
9 7 7 8 8 8 8 9 8 7 7 9 8 9 9 9 9 9 9 9 8 8 9 16 18 17 17 17 7 9 8 9 11 11 12 12 13 15 15 15 12 11 12 12 16 17 14 11 13 14 14 15 14 14 14 12 12 13 15 16 17 19 18
7 8 7 7 7 7 6 6 7 7 8 8 8 9 9 9 10 10 10 10 9 8 9 14 18 17 17 18 12 8 8 9 10 11 11 12 11 12 16 23 19 13 13 12 16 18 18 11 13 14 14 14 14 14 14 12 12 11 12 14 16 16 18
9 8 8 7 6 7 6 6 6 6 6 7 7 7 8 9 10 9 9 9 11 10 10 12 17 18 18 18 12 7 8 9 9 10 10 11 11 11 12 14 20 16 12 13 17 18 20 13 12 12 12 13 14 15 13 13 12 13 14 15 15 14 17
8 7 7 7 6 6 5 5 6 6 6 6 7 8 8 9 10 9 9 9 9 10 10 11 15 17 18 18 19 8 8 8 9 10 10 10 10 11 11 11 13 17 16 17 17 18 18 18 13 12 11 11 12 13 11 13 13 11 13 15 14 14 15
7 6 6 6 6 6 5 6 6 7 7 7 8 8 9 9 9 10 10 10 11 11 10 10 14 18 18 18 19 14 8 9 9 9 10 11 11 10 10 11 10 14 15 16 16 17 17 16 14 14 13 12 8 6 8 9 11 11 11 12 12 12 12
7 6 6 6 7 7 6 7 7 7 7 8 9 9 9 9 9 9 9 10 10 11 12 14 11 15 17 17 18 19 10 10 9 9 10 10 10 11 11 10 10 10 14 16 17 16 15 14 14 11 8 7 9 10 11 11 11 11 11 11 11 12 13
6 5 6 7 7 8 7 7 8 8 8 9 9 10 9 8 8 9 9 9 9 10 10 11 14 13 16 16 17 17 16 12 11 10 10 10 10 10 10 10 9 10 11 14 15 16 16 15 14 11 14 11 8 4 11 11 10 10 11 12 13 14 14
9 9 9 8 7 8 7 7 7 6 7 7 8 8 7 7 8 8 9 8 8 8 9 9 12 13 13 15 16 16 16 16 14 11 10 10 10 9 9 9 7 9 10 10 12 14 16 15 12 15 15 13 10 11 10 11 10 11 12 13 14 14 15
Wind_Direction
169 152 160 166 139 136 113 111 139 143 170 312 293 268 276 258 247 260 249 260 262 259 258 262 263 266 271 270 273 281 281 274 266 259 266 269 262 262 246 253 247 248 251 250 254 265 273 277 240 226 264 227 218 222 229 221 211 207 208 218 215 203 204
160 153 152 155 151 157 181 141 174 184 210 254 282 299 294 284 258 251 256 253 261 276 269 270 266 268 270 273 274 269 269 274 273 267 267 266 267 267 271 259 256 254 252 243 247 247 253 259 259 249 228 232 224 224 220 222 212 206 206 208 210 210 192
161 157 175 153 155 171 166 143 178 239 289 263 271 288 284 286 295 292 287 287 282 279 289 293 289 280 272 267 267 271 276 274 273 274 269 274 271 269 265 270 267 254 243 246 252 250 244 241 255 259 252 226 214 219 215 215 213 211 207 206 204 209 212
154 155 162 154 139 146 164 146 277 306 303 314 306 288 307 307 304 293 288 290 293 288 272 271 274 280 281 280 278 277 270 266 267 274 276 274 272 272 269 271 265 254 255 257 252 221 234 241 244 255 257 262 260 256 217 208 211 214 210 208 212 209 218
136 150 142 119 123 149 318 327 329 300 307 293 294 301 306 328 312 304 303 296 290 291 290 290 287 284 284 282 278 275 275 273 275 275 276 276 272 271 264 261 260 265 263 258 261 243 254 262 262 257 250 250 250 248 242 197 202 207 203 198 209 212 206
121 126 121 101 51 331 8 335 317 314 307 304 330 312 333 315 308 304 303 303 301 298 298 295 293 296 292 286 285 285 280 280 280 281 279 279 282 282 284 274 273 268 262 251 244 250 242 238 247 263 250 243 257 261 250 220 205 201 195 208 212 216 211
126 110 97 87 37 354 342 346 338 325 314 316 316 319 323 315 312 315 311 311 306 301 297 294 291 290 288 287 287 282 284 282 280 278 278 280 281 278 276 276 271 266 257 259 266 261 249 246 245 245 264 259 251 252 255 244 225 208 208 209 204 210 210
117 109 83 49 38 357 357 332 331 331 314 329 327 327 322 326 327 324 324 313 310 307 304 300 299 295 290 284 282 284 284 284 285 285 284 284 283 279 272 269 277 277 283 282 263 259 262 255 256 257 255 252 248 243 252 248 244 228 218 205 202 210 213
112 98 91 63 47 7 353 339 341 349 334 322 322 324 335 332 330 324 317 311 309 309 308 305 301 298 297 294 289 289 290 290 292 290 287 286 286 284 277 277 272 270 263 264 266 255 258 261 254 245 246 250 253 253 228 246 236 239 222 213 198 210 205
104 89 78 67 20 9 354 354 353 343 337 331 330 339 334 338 331 332 327 328 325 324 321 317 310 301 299 294 292 292 291 290 287 290 290 286 291 291 281 274 275 275 275 264 256 251 246 238 241 255 250 238 249 257 252 248 244 237 220 217 223 210 208
105 81 67 41 30 8 5 5 355 345 348 343 341 343 337 340 342 338 333 330 331 331 327 319 317 313 311 302 297 293 289 293 293 292 292 291 292 297 287 276 271 272 270 263 270 264 248 246 242 244 252 250 246 255 256 257 258 221 229 215 228 215 196
105 95 76 56 40 28 13 0 354 350 349 355 346 345 342 345 342 339 338 335 331 332 328 318 319 311 306 301 300 296 299 302 299 300 300 296 291 296 292 280 275 278 277 288 281 263 268 257 251 246 239 238 240 249 255 261 274 245 206 227 222 223 191
89 80 70 53 37 15 10 8 10 357 1 341 348 346 347 344 340 336 336 333 334 339 336 328 320 312 319 321 316 314 321 320 313 310 309 306 305 300 297 292 287 280 275 251 252 261 250 250 231 240 254 247 233 234 246 256 261 269 218 242 224 233 191
87 78 68 52 31 29 28 19 17 357 344 360 353 355 350 347 343 342 340 340 342 339 333 329 329 325 322 317 320 322 318 318 315 319 321 319 316 310 307 304 304 294 285 284 280 269 251 247 243 237 247 255 249 239 241 247 257 264 252 228 231 211 200
80 72 69 60 46 41 32 27 14 7 5 13 8 1 356 352 347 347 349 347 345 342 337 334 331 325 324 327 324 322 323 323 322 323 326 324 329 335 321 316 312 312 305 297 287 278 292 272 249 241 238 246 243 246 235 245 250 264 267 206 233 232 212
79 76 71 66 57 50 46 40 27 26 24 21 18 13 5 356 353 350 354 358 356 352 348 345 342 338 333 330 329 329 326 327 331 333 332 336 339 340 341 333 327 325 327 320 305 302 290 281 273 274 268 252 252 243 234 236 247 255 265 256 220 216 225
79 83 84 75 65 59 52 50 40 42 40 32 25 16 5 2 360 3 6 5 3 359 357 353 351 348 341 339 337 333 338 343 342 344 348 354 357 352 350 348 348 342 335 325 319 309 308 302 287 258 254 253 252 253 240 227 220 246 267 275 227 213 207
93 92 90 82 75 69 64 61 52 44 40 35 26 18 15 15 16 14 11 8 5 6 4 359 355 356 353 349 348 350 349 349 349 2 8 1 360 1 356 351 355 349 346 343 340 344 331 323 323 292 256 251 253 242 226 215 232 227 247 257 276 236 175
98 94 88 84 78 73 69 62 59 51 42 39 33 31 27 27 23 20 19 14 11 9 9 3 0 356 349 353 356 359 357 356 2 10 9 7 6 11 7 8 5 0 355 353 342 344 349 339 334 337 324 316 301 270 263 242 213 228 234 251 225 225 264
101 93 88 85 82 77 70 64 59 55 48 44 41 36 33 32 29 28 25 21 19 15 12 8 1 351 347 359 3 7 7 6 12 17 15 16 13 18 21 19 23 16 10 3 358 1 350 344 345 347 353 343 318 286 280 269 244 234 229 231 227 210 195
95 93 93 89 83 78 74 70 64 58 51 47 40 36 33 34 39 37 34 30 24 21 16 12 3 354 348 5 9 15 15 14 16 19 22 24 23 24 27 32 40 34 29 21 15 13 8 359 357 9 9 348 345 329 302 291 269 256 247 232 221 211 188
99 96 92 88 85 81 76 72 69 64 57 50 41 38 40 43 46 45 41 36 30 27 27 20 12 358 350 1 21 20 24 25 24 24 23 26 27 28 29 37 43 49 46 41 38 36 36 31 22 24 10 4 358 354 347 322 299 274 278 264 213 126 187
98 94 89 88 85 84 81 77 73 68 62 56 51 49 55 53 49 46 42 37 37 33 30 25 356 351 352 340 19 33 38 34 33 32 30 30 30 27 29 26 31 39 65 58 46 41 40 43 48 48 33 19 7 3 4 351 337 310 272 265 230 197 199
100 93 93 91 89 85 82 81 78 75 70 67 67 63 58 55 52 48 45 43 40 41 34 9 348 353 351 353 3 47 43 41 39 38 36 35 29 27 28 28 30 25 22 49 74 63 44 44 49 50 50 47 42 34 17 5 359 350 339 288 244 221 221
101 98 97 96 91 89 87 85 81 77 76 73 68 69 64 59 57 52 49 49 46 41 36 3 355 353 351 353 354 47 50 47 44 42 41 38 35 32 30 31 28 28 28 23 34 48 61 58 52 51 53 50 44 40 40 40 14 5 355 2 6 10 357
107 105 104 100 89 92 93 92 89 84 79 76 73 69 65 64 61 56 52 52 48 44 34 7 356 352 346 345 359 46 55 53 51 48 43 39 38 37 34 34 33 32 31 16 29 42 38 52 63 59 54 52 48 39 34 31 30 29 17 33 35 36 25
110 110 109 96 91 88 94 91 91 88 86 82 80 76 72 69 67 61 56 56 53 39 28 2 355 350 346 344 18 52 60 56 57 54 48 45 42 40 40 37 38 40 36 34 12 19 46 45 45 48 50 49 48 43 41 39 37 33 34 39 40 35 10
116 113 105 100 91 89 94 99 96 90 86 84 81 80 75 71 67 65 63 62 62 40 33 4 359 353 347 345 328 74 65 65 60 54 49 43 41 41 38 41 42 42 40 37 13 345 39 49 50 52 55 55 53 50 47 43 40 41 42 38 39 43 30
119 111 107 100 93 91 93 92 93 95 99 93 86 85 80 73 71 69 66 65 62 43 33 11 358 358 350 347 328 75 71 65 58 55 55 49 43 33 25 26 33 38 41 35 356 352 0 54 56 58 59 59 59 57 55 51 46 47 49 47 46 46 45
116 108 102 94 89 90 94 97 96 97 92 93 88 83 82 76 72 69 64 63 56 45 35 14 2 2 357 349 22 73 70 66 62 58 54 57 52 44 34 22 29 31 40 28 354 357 352 50 59 61 61 63 64 61 58 54 48 49 47 46 45 41 36
117 110 101 94 92 87 87 91 92 98 103 103 93 90 89 86 78 70 65 55 39 45 40 21 8 5 2 359 346 68 70 65 67 62 61 55 54 55 43 34 27 32 38 23 4 11 358 37 61 62 61 63 61 57 51 47 51 45 42 43 42 41 39
123 110 97 94 93 93 90 86 92 98 98 96 92 88 85 84 81 75 67 57 46 46 47 28 14 10 7 7 359 69 59 69 60 60 65 60 56 51 50 43 30 20 23 18 20 18 10 23 64 54 56 58 59 56 46 40 43 43 40 42 39 33 42
117 103 105 102 96 92 93 96 95 97 96 95 93 89 85 80 77 73 67 57 47 43 47 42 22 15 17 14 2 16 66 65 65 66 57 59 59 57 51 48 34 16 15 24 28 25 23 11 49 56 55 55 57 58 58 52 44 42 48 50 48 41 40
115 108 108 104 104 101 102 103 101 100 96 92 93 90 88 87 83 79 70 64 61 49 35 42 38 22 24 22 16 11 70 53 63 63 67 62 60 57 56 50 48 20 22 29 28 27 27 23 33 60 58 60 42 10 53 61 55 48 49 48 50 49 47
106 106 111 115 113 106 101 103 103 103 101 101 98 94 93 92 89 84 79 73 69 67 48 32 41 34 27 30 29 21 38 48 25 73 66 70 67 68 62 55 51 21 31 37 34 27 22 28 25 47 19 349 345 8 61 63 55 52 53 54 55 57 59
115 117 119 117 111 108 107 103 102 104 107 104 100 99 95 95 93 88 87 81 78 70 65 53 30 43 36 35 32 36 29 28 20 64 69 72 70 70 70 63 50 20 33 41 43 38 30 19 37 18 6 3 10 16 55 64 59 56 58 57 57 58 59
126 128 127 120 112 110 110 112 114 115 116 112 110 105 103 102 97 95 92 88 83 82 76 70 54 44 47 40 42 40 36 32 29 60 64 72 66 65 65 57 33 11 26 31 42 43 36 29 24 12 12 6 28 43 57 61 58 58 60 60 60 59 58